{"data":{"norad_id":48235,"intl_designator":"2021-031AB","name":"ONEWEB-0203","alt_names":[],"object_type":"PAYLOAD","status":"ACTIVE","operator":null,"country":"UK","launch_date":"2021-04-25","launch_site_code":"VOSTO","launch_vehicle":null,"mission":null,"orbit_class":"UNKNOWN","rcs_meters":null,"size_class":null,"mass_kg":null,"dimensions":null,"purposes":["comms"],"wikipedia_slug":null,"has_3d_model":false,"image_url":null,"decayed_at":null,"tle_current":{"epoch":"2026-09-19T18:56:00.831264Z","epoch_age_seconds":83451,"freshness":"FRESH","line1":"1 48235U 21031AB  26262.78889851  .00000263  00000+0  67425-3 0  9998","line2":"2 48235  87.8900 270.8347 0001942  82.9934 277.1417 13.14501926260704","mean_motion":13.14501926,"eccentricity":0.0001942,"inclination_deg":87.89,"raan_deg":270.8347,"arg_perigee_deg":82.9934,"mean_anomaly_deg":277.1417,"bstar":0.00067425,"rev_number":26070,"period_min":109.54719590118,"perigee_km":1204.3209169532,"apogee_km":1207.2665156434,"semimajor_km":7583.9307162983,"source":"CELESTRAK","updated_at":"2026-09-20T09:00:44.597541Z"}}}